Regional Weather Roundup
Issued by NWS Binghamton, NY

Home | Current Version | Previous Version | Text Only | Print | Product List | Glossary On
Versions: 1 2 3 4 5 6 7 8 9 10 11 12 13 14 15 16 17 18 19 20 21 22 23 24 25 26 27 28 29 30 31 32 33 34 35 36 37 38 39 40 41 42 43 44 45 46 47 48 49 50
000
ASUS41 KBGM 011910
RWRBGM
RWRBGM
BINGHAMTON REGIONAL WEATHER ROUNDUP
NATIONAL WEATHER SERVICE BINGHAMTON NY
300 PM EDT TUE SEP 01 2015

Note: "fair" indicates few or no clouds below 12,000 feet with no
significant weather and/or obstructions to visibility.

* = Station(s) that does not report precipitation, such as rain,
snow, etc, also no thunder or fog.

!NYZ009-015>018-022>025-036-037-044>046-055>057-062-012000
...CENTRAL NEW YORK...

CITY           SKY/WX    TMP DP  RH WIND       PRES   REMARKS
BINGHAMTON     SUNNY     79  65  62 VRB3      30.11S
CORTLAND       PTSUNNY   81  64  57 SW6       30.10F
DANSVILLE      SUNNY     84  65  52 N7        30.07F HX  86
ELMIRA         SUNNY     85  66  53 W8        30.07F HX  87
ITHACA         MOSUNNY   82  65  56 NW6       30.10F
HORNELL        SUNNY     82  63  51 S3          N/A
MONTICELLO     MOSUNNY   81  61  50 CALM      30.10F
NORWICH        MOSUNNY   81  64  57 CALM      30.09S
ONEONTA        MOSUNNY   79  57  47 W3        30.12S
PENN YAN       SUNNY     83  64  52 W5        30.09S
ROME           CLOUDY    77  67  71 W6        30.08F
SIDNEY         SUNNY     82  66  57 SW3       30.08F HX  85
SYRACUSE       CLOUDY    78  68  71 S3        30.06F
$$

!PAZ038>040-043-044-047-048-072-012000
...NORTHEAST PENNSYLVANIA...

CITY           SKY/WX    TMP DP  RH WIND       PRES   REMARKS
HAZLETON       MOSUNNY   82  63  51 CALM      30.14S
SCRANTON       MOSUNNY   86  63  45 W7        30.07F HX  87
TOWANDA*       SUNNY     84  64  51 MISG      30.08F HX  86
$$
&&
KEY
WCI = WIND CHILL INDEX
VSB = VISIBILITY
HX  = HEAT INDEX
$$


USA.gov is the U.S. government's official web portal to all federal, state and local government web resources and services.